Sauk Centre, MN

8:37 PM CST on December 08, 2019 (GMT -0600)
Sauk Centre

Weather History for KD39 - November, 2019

Change the Weather History Date:

Thursday, November 14, 2019

  Actual Average (KGHW) Record (KGHW)
Temperature  
Mean Temperature 20 °F -  
Max Temperature 33 °F 39 °F 71 °F (1990)
Min Temperature 8 °F 22 °F -4 °F (1959)
Degree Days  
Heating Degree Days 44    
Moisture  
Dew Point 16 °F    
Average Humidity 79    
Maximum Humidity 96    
Minimum Humidity 57    
Precipitation  
Precipitation 0.00 in - - ()
Sea Level Pressure  
Sea Level Pressure 30.16 in    
Wind  
Wind Speed 7 mph ()    
Max Wind Speed 13 mph    
Max Gust Speed 18 mph    
Visibility 10.0 miles    
Events Snow    
Averages and records for this station are not official NWS values.
T = Trace of Precipitation, MM = Missing Value Source: Averaged Metar Reports

Daily Weather History Graph

Daily Weather History Graph

Search for Another Location

Airport or City:

Astronomy

Nov. 14, 2019 Rise Set
Actual Time 7:17 AM CST 4:50 PM CST
Civil Twilight 6:45 AM CST 5:22 PM CST
Nautical Twilight 6:09 AM CST 5:58 PM CST
Astronomical Twilight 5:34 AM CST 6:33 PM CST
Moon 6:32 PM CST (11/14) 9:17 AM CST (11/14)
Length of Visible Light 10h 36m
Length of Day
9h 32m
Waning Gibbous, 95% of the Moon is Illuminated
Nov 14
Waning Gibbous
Nov 19
Last Quarter
Nov 26
New
Dec 4
First Quarter
Dec 11
Full

Hourly Weather History & Observations

Time (CST) Temp. Windchill Dew Point Humidity Pressure Visibility Wind Dir Wind Speed Gust Speed Precip Events Conditions
12:15 AM 18.1 °F 5.6 °F 11.3 °F 75% 30.13 in 10.0 mi NW 11.5 mph - N/A Snow Light Snow
12:16 AM 18.0 °F 6.9 °F 11.3 °F 75% 30.14 in 10.0 mi NW 9.2 mph - N/A Snow Light Snow
12:56 AM 17.2 °F 7.8 °F 10.0 °F 73% 30.14 in 10.0 mi NNW 6.9 mph - N/A Snow Light Snow
1:15 AM 17.6 °F 5.7 °F 11.3 °F 76% 30.15 in 10.0 mi NW 10.4 mph - N/A Snow Light Snow
1:35 AM 17.1 °F 4.3 °F 10.8 °F 76% 30.15 in 10.0 mi WNW 11.5 mph - N/A Snow Light Snow
1:36 AM 17.1 °F 4.3 °F 10.6 °F 76% 30.15 in 10.0 mi WNW 11.5 mph - N/A Snow Light Snow
1:59 AM 15.8 °F 4.2 °F 9.1 °F 75% 30.16 in 10.0 mi NW 9.2 mph - N/A   Overcast
2:17 AM 14.0 °F 3.9 °F 8.6 °F 79% 30.16 in 10.0 mi NW 6.9 mph - N/A   Mostly Cloudy
2:36 AM 13.5 °F 4.4 °F 8.6 °F 81% 30.17 in 10.0 mi NW 5.8 mph - N/A   Clear
2:55 AM 12.6 °F 4.8 °F 8.2 °F 83% 30.17 in 10.0 mi WNW 4.6 mph - N/A   Clear
2:56 AM 12.4 °F 4.6 °F 8.1 °F 83% 30.18 in 10.0 mi WNW 4.6 mph - N/A   Clear
3:15 AM 12.2 °F 4.3 °F 7.7 °F 82% 30.17 in 10.0 mi WNW 4.6 mph - N/A   Clear
3:19 AM 12.0 °F 4.1 °F 7.7 °F 83% 30.18 in 10.0 mi WNW 4.6 mph - N/A   Clear
3:55 AM 10.8 °F 1.2 °F 7.5 °F 87% 30.18 in 10.0 mi West 5.8 mph - N/A   Clear
4:15 AM 10.4 °F 2.2 °F 7.2 °F 87% 30.18 in 10.0 mi West 4.6 mph - N/A   Clear
4:16 AM 10.4 °F 2.2 °F 7.2 °F 87% 30.18 in 10.0 mi West 4.6 mph - N/A   Clear
4:35 AM 10.0 °F 0.4 °F 6.8 °F 87% 30.18 in 10.0 mi West 5.8 mph - N/A   Clear
4:36 AM 10.0 °F 0.4 °F 6.8 °F 87% 30.18 in 10.0 mi West 5.8 mph - N/A   Clear
4:58 AM 9.5 °F 1.2 °F 6.6 °F 88% 30.18 in 10.0 mi West 4.6 mph - N/A   Clear
5:16 AM 9.3 °F -0.5 °F 5.9 °F 86% 30.18 in 10.0 mi West 5.8 mph - N/A   Clear
5:36 AM 9.5 °F 1.2 °F 6.4 °F 87% 30.19 in 10.0 mi West 4.6 mph - N/A   Clear
5:55 AM 10.0 °F -0.9 °F 6.8 °F 87% 30.19 in 10.0 mi West 6.9 mph - N/A   Clear
6:15 AM 9.5 °F 1.2 °F 6.3 °F 87% 30.20 in 10.0 mi West 4.6 mph - N/A   Clear
6:19 AM 9.5 °F 1.2 °F 6.3 °F 87% 30.20 in 10.0 mi West 4.6 mph - N/A   Clear
6:37 AM 8.6 °F -1.3 °F 5.9 °F 89% 30.20 in 10.0 mi West 5.8 mph - N/A   Clear
6:55 AM 9.5 °F -2.6 °F 6.6 °F 88% 30.19 in 10.0 mi West 8.1 mph - N/A   Clear
7:15 AM 9.3 °F -1.7 °F 6.3 °F 87% 30.19 in 10.0 mi West 6.9 mph - N/A   Clear
7:16 AM 9.3 °F -1.7 °F 6.3 °F 87% 30.19 in 10.0 mi West 6.9 mph - N/A   Clear
7:35 AM 9.9 °F 0.2 °F 6.8 °F 87% 30.19 in 10.0 mi WSW 5.8 mph - N/A   Clear
7:39 AM 10.0 °F 0.4 °F 6.8 °F 87% 30.19 in 10.0 mi West 5.8 mph - N/A   Clear
7:57 AM 11.5 °F 2.1 °F 8.1 °F 86% 30.19 in 10.0 mi WSW 5.8 mph - N/A   Clear
8:16 AM 12.9 °F 3.8 °F 8.8 °F 84% 30.21 in 10.0 mi WSW 5.8 mph - N/A   Clear
8:35 AM 14.9 °F 7.5 °F 10.8 °F 84% 30.21 in 10.0 mi SW 4.6 mph - N/A   Clear
8:36 AM 14.9 °F 7.5 °F 10.9 °F 84% 30.21 in 10.0 mi SW 4.6 mph - N/A   Clear
8:55 AM 16.0 °F 6.3 °F 12.0 °F 84% 30.21 in 10.0 mi WSW 6.9 mph - N/A   Clear
8:56 AM 16.0 °F 5.3 °F 12.0 °F 84% 30.21 in 10.0 mi WSW 8.1 mph - N/A   Clear
9:18 AM 18.1 °F 7.1 °F 13.1 °F 81% 30.22 in 10.0 mi WSW 9.2 mph 16.1 mph N/A   Clear
9:36 AM 18.7 °F 6.3 °F 13.6 °F 81% 30.20 in 10.0 mi WSW 11.5 mph 16.1 mph N/A   Clear
9:55 AM 20.5 °F 10.0 °F 14.4 °F 77% 30.20 in 10.0 mi WSW 9.2 mph - N/A   Clear
9:56 AM 20.5 °F 9.2 °F 14.4 °F 77% 30.20 in 10.0 mi WSW 10.4 mph - N/A   Clear
10:15 AM 21.2 °F 10.1 °F 13.8 °F 73% 30.20 in 10.0 mi SW 10.4 mph - N/A   Clear
10:16 AM 21.2 °F 10.1 °F 13.8 °F 73% 30.20 in 10.0 mi WSW 10.4 mph - N/A   Clear
10:35 AM 22.1 °F 11.3 °F 13.8 °F 70% 30.20 in 10.0 mi WSW 10.4 mph - N/A   Clear
10:40 AM 22.8 °F 13.6 °F 14.0 °F 69% 30.20 in 10.0 mi SW 8.1 mph - N/A   Clear
10:58 AM 23.7 °F 13.3 °F 14.0 °F 66% 30.20 in 10.0 mi WSW 10.4 mph 16.1 mph N/A   Clear
11:35 AM 25.2 °F 13.9 °F 13.8 °F 62% 30.19 in 10.0 mi SW 12.7 mph - N/A   Mostly Cloudy
11:36 AM 25.2 °F 13.9 °F 13.8 °F 62% 30.18 in 10.0 mi SW 12.7 mph - N/A   Mostly Cloudy
11:55 AM 25.9 °F 16.6 °F 14.0 °F 61% 30.18 in 10.0 mi SW 9.2 mph - N/A   Overcast
11:56 AM 25.9 °F 16.0 °F 14.2 °F 61% 30.18 in 10.0 mi SW 10.4 mph - N/A   Overcast
12:19 PM 26.6 °F 16.8 °F 14.0 °F 59% 30.17 in 10.0 mi SW 10.4 mph - N/A   Overcast
12:36 PM 27.1 °F 18.2 °F 14.7 °F 60% 30.16 in 10.0 mi SW 9.2 mph - N/A   Overcast
12:56 PM 27.5 °F 18.0 °F 15.3 °F 60% 30.16 in 10.0 mi SW 10.4 mph - N/A   Overcast
1:15 PM 28.0 °F 18.6 °F 15.6 °F 60% 30.15 in 10.0 mi SSW 10.4 mph - N/A   Overcast
1:35 PM 28.8 °F 20.2 °F 16.0 °F 59% 30.15 in 10.0 mi SW 9.2 mph - N/A   Overcast
1:39 PM 29.1 °F 20.6 °F 16.9 °F 60% 30.14 in 10.0 mi SSW 9.2 mph - N/A   Overcast
1:57 PM 29.7 °F 19.6 °F 16.9 °F 59% 30.14 in 10.0 mi SW 12.7 mph 18.4 mph N/A   Overcast
2:35 PM 32.0 °F 23.6 °F 18.3 °F 57% 30.13 in 10.0 mi SSW 10.4 mph 16.1 mph N/A   Scattered Clouds
2:55 PM 32.5 °F 24.2 °F 19.4 °F 58% 30.12 in 10.0 mi SSW 10.4 mph - N/A   Clear
2:56 PM 32.5 °F 24.8 °F 19.4 °F 58% 30.12 in 10.0 mi SSW 9.2 mph - N/A   Clear
3:36 PM 33.4 °F 25.4 °F 21.2 °F 61% 30.11 in 10.0 mi SW 10.4 mph - N/A   Clear
3:55 PM 33.6 °F 26.2 °F 22.1 °F 63% 30.10 in 10.0 mi SW 9.2 mph - N/A   Clear
4:15 PM 33.1 °F 26.1 °F 22.8 °F 66% 30.11 in 10.0 mi SW 8.1 mph - N/A   Clear
4:35 PM 32.0 °F 25.6 °F 23.2 °F 70% 30.10 in 10.0 mi SSW 6.9 mph - N/A   Clear
4:40 PM 32.0 °F 26.4 °F 23.4 °F 70% 30.10 in 10.0 mi SW 5.8 mph - N/A   Clear
4:57 PM 31.1 °F 25.4 °F 23.0 °F 72% 30.09 in 10.0 mi SW 5.8 mph - N/A   Clear
5:16 PM 30.6 °F - 23.0 °F 74% 30.10 in 10.0 mi Calm Calm - N/A   Clear
5:35 PM 30.9 °F 27.5 °F 23.5 °F 74% 30.10 in 10.0 mi SW 3.5 mph - N/A   Clear
5:36 PM 30.7 °F 26.0 °F 23.4 °F 74% 30.10 in 10.0 mi WSW 4.6 mph - N/A   Clear
5:55 PM 30.2 °F 24.3 °F 23.7 °F 77% 30.10 in 10.0 mi SW 5.8 mph - N/A   Clear
5:56 PM 30.2 °F 24.3 °F 23.9 °F 77% 30.10 in 10.0 mi SW 5.8 mph - N/A   Clear
6:19 PM 30.4 °F 24.5 °F 24.4 °F 79% 30.11 in 10.0 mi WSW 5.8 mph - N/A   Clear
6:36 PM 30.9 °F 26.2 °F 25.2 °F 79% 30.11 in 10.0 mi WSW 4.6 mph - N/A   Clear
6:55 PM 31.1 °F 24.5 °F 25.7 °F 80% 30.11 in 10.0 mi WSW 6.9 mph - N/A   Clear
6:56 PM 31.1 °F 23.7 °F 25.9 °F 81% 30.11 in 10.0 mi WSW 8.1 mph - N/A   Clear
7:15 PM 31.8 °F 26.2 °F 27.1 °F 83% 30.11 in 10.0 mi WSW 5.8 mph - N/A   Clear
7:16 PM 31.8 °F 26.2 °F 27.1 °F 83% 30.11 in 10.0 mi WSW 5.8 mph - N/A   Clear
7:38 PM 31.5 °F 24.2 °F 27.5 °F 85% 30.11 in 10.0 mi West 8.1 mph - N/A   Clear
7:56 PM 31.5 °F 24.2 °F 27.9 °F 87% 30.11 in 10.0 mi West 8.1 mph - N/A   Clear
8:16 PM 30.2 °F 22.6 °F 27.3 °F 89% 30.13 in 10.0 mi West 8.1 mph - N/A   Clear
8:35 PM 29.8 °F 23.9 °F 27.1 °F 90% 30.13 in 10.0 mi West 5.8 mph - N/A   Clear
8:36 PM 29.7 °F 24.7 °F 27.1 °F 90% 30.13 in 10.0 mi WNW 4.6 mph - N/A   Clear
8:55 PM 29.3 °F 22.3 °F 27.0 °F 91% 30.14 in 10.0 mi West 6.9 mph - N/A   Clear
9:17 PM 29.3 °F 23.2 °F 27.0 °F 91% 30.14 in 10.0 mi West 5.8 mph - N/A   Clear
9:35 PM 28.4 °F 23.3 °F 26.4 °F 92% 30.15 in 10.0 mi West 4.6 mph - N/A   Clear
9:36 PM 28.4 °F 24.6 °F 26.4 °F 92% 30.15 in 10.0 mi West 3.5 mph - N/A   Clear
9:55 PM 28.2 °F 24.4 °F 26.2 °F 92% 30.16 in 10.0 mi WNW 3.5 mph - N/A   Clear
9:56 PM 28.0 °F - 26.2 °F 93% 30.16 in 10.0 mi Calm Calm - N/A   Clear
10:15 PM 27.7 °F - 26.1 °F 94% 30.16 in 10.0 mi Calm Calm - N/A   Clear
10:20 PM 27.7 °F - 26.2 °F 94% 30.16 in 10.0 mi Calm Calm - N/A   Clear
10:38 PM 27.3 °F - 25.9 °F 94% 30.16 in 10.0 mi Calm Calm - N/A   Clear
10:55 PM 27.0 °F - 25.7 °F 95% 30.17 in 10.0 mi Calm Calm - N/A   Clear
11:15 PM 27.5 °F 22.2 °F 26.2 °F 95% 30.17 in 10.0 mi West 4.6 mph - N/A   Mostly Cloudy
11:16 PM 27.5 °F 22.2 °F 26.2 °F 95% 30.17 in 10.0 mi West 4.6 mph - N/A   Scattered Clouds
11:35 PM 25.9 °F 20.3 °F 24.8 °F 96% 30.18 in 10.0 mi West 4.6 mph - N/A   Mostly Cloudy
11:40 PM 26.4 °F - 25.5 °F 96% 30.18 in 10.0 mi Calm Calm - N/A   Mostly Cloudy
11:57 PM 27.5 °F - 26.2 °F 95% 30.18 in 10.0 mi Calm Calm - N/A   Overcast